星链-3419 (STARLINK-3419 )

导读 | 豆包AI

STARLINK-3419是美国于2022年2月3日发射的SpaceX星链卫星,隶属于星链互联网卫星星座,该星座旨在为全球提供高速低延迟卫星互联网服务。星链项目持续批量发射卫星搭建低轨卫星网络,这颗卫星是星链组网过程中的组成部分,参与全球卫星互联网的覆盖建设。

Basic Information
目录编号:
51463
目录名称:
STARLINK-3419
国际标识:
2022-010H
轨道中心:
EARTH
卫星名称:
星链-3419
卫星全名:
星链-3419 (STARLINK-3419 )
卫星状态:
在轨 (已飞行1500 天)
发射日期:
2022-02-03 UTC
国别 :
美国 (US)
星等 :
--
Orbit Information
数据来源 国际轨道数据 AOE轨道数据
星历时间 2026-03-14T13:52:28+0800
15小时前
查看轨道信息
2026-03-12T11:00:00+0800
2天前
查看轨道信息
半长轴 6917.874km 6917.842km
偏心率 0.0001331 0.0001396
轨道倾角 53.216° 53.214°
近地点辐角 91.793° 86.078°
升交点赤经 258.674° 268.188°
平近点角 268.322° 273.556°
近地点 538.816km 538.739km
远地点 540.658km 540.671km
周期 95.437分钟 95.437分钟
每日圈数 15.088422 15.088527
Detailed Information
固有亮度:
5
最大亮度:
2.5
卫星平台:
Starlink v1.5
覆盖范围:
全球
运营商:
太空探索技术公司
运营商所在国:
美国
制造商(研发单位):
太空探索技术公司
制造商所在国:
美国
使用方式:
暂无
Satellite Introduction
星链(Starlink)计划是由太空探索技术公司(SpaceX)提出的一个巨型低轨卫星互联网星座项目,计划在2019年至2024年间在太空搭建由约1.2万颗卫星组成的“星链”网络,其中1584颗将部署在地球上空550千米处的近地轨道,并从2020年开始工作。该卫星仍在工作。
2D Orbit Map
3D Orbit Map
Orbit Altitude Analysis Chart
Orbit Inclination Analysis Chart
Orbit Comprehensive Analysis Chart
View Comprehensive Chart